Tracking 19792 objects as of 17-Jul-2019
HD Live streaming from Space Station
objects crossing your sky now

COSMOS 1275 DEB

Track COSMOS 1275 DEB now!
10-day predictions


NORAD ID: 13817
Int'l Code: 1981-053HQ
Perigee: 881.9 km
Apogee: 918.6 km
Inclination: 82.9 °
Period: 102.8 minutes
Semi major axis: 7271 km
RCS: 0.0127 m2 (small)
Launch date: June 4, 1981
Source: Commonwealth of Independent States (former USSR) (CIS)
Launch site: PLESETSK MISSILE AND SPACE COMPLEX (PKMTR)

Note: This is SATELLITE DEBRIS
aabbcc
Your satellite tracking list
Your tracking list is empty




NASA's NSSDC Master Catalog

Two Line Element Set (TLE):
1 13817U 81053HM  19197.09987738  .00000287  00000-0  18342-3 0  9993
2 13817  82.9456  78.8839 0025232 198.3357 161.6906 14.00204263901921
Source of the keplerian elements: AFSPC